Regional Weather Roundup
Issued by NWS

Home | Current Version | Previous Version | Graphics & Text | Print | Product List | Glossary On
Versions: 1 2 3 4 5 6 7 8 9 10 11 12 13 14 15 16 17 18 19 20 21 22 23 24 25 26 27 28 29 30 31 32 33 34 35 36 37 38 39 40 41 42 43 44 45 46 47 48 49 50
000
ASUS43 KLOT 271810
RWRIL

ILLINOIS REGIONAL WEATHER ROUNDUP
NATIONAL WEATHER SERVICE CHICAGO/ROMEOVILLE IL
100 PM CDT WED AUG 27 2014

NOTE: "FAIR" INDICATES FEW OR NO CLOUDS BELOW 12,000 FEET WITH NO
SIGNIFICANT WEATHER AND/OR OBSTRUCTIONS TO VISIBILITY.

* THESE STATIONS ARE NOT UNDER NWS QUALITY CONTROL. THEY ALSO MAY NOT
  REPORT WEATHER SUCH AS PRECIPITATION OR FOG.

ILZ001-002-007-009-015-016-024-271900-
NORTHWEST ILLINOIS

CITY           SKY/WX    TMP DP  RH WIND       PRES   REMARKS
MOLINE         FAIR      78  63  59 VRB3      30.16S HX  80
6HR MIN TEMP:  69; 6HR MAX TEMP:  79;

STERLING*      FAIR      81  64  57 NE5       30.16S HX  82
SAVANNA*       FAIR      79  58  48 NW5       30.17S HX  80
$$

ILZ003-004-008-010-011-017-018-271900-
NORTH CENTRAL ILLINOIS

CITY           SKY/WX    TMP DP  RH WIND       PRES   REMARKS
ROCKFORD       PTSUNNY   80  58  46 VRB3      30.17S HX  80
6HR MIN TEMP:  65; 6HR MAX TEMP:  80;

FREEPORT*      FAIR      75  61  62 N6        30.19F
ROCHELLE*      FAIR      77  60  55 CALM      30.16F
DE KALB*       FAIR      76  61  58 CALM      30.17S
PERU*          FAIR      78  64  62 NE6       30.15F
$$

ILZ005-006-012>014-019>023-271900-
NORTHEAST ILLINOIS

CITY           SKY/WX    TMP DP  RH WIND       PRES   REMARKS
CHICAGO-OHARE  PTSUNNY   80  57  45 VRB6      30.14S HX  80
6HR MIN TEMP:  68; 6HR MAX TEMP:  80;

CHICAGO-MIDWAY PTSUNNY   81  61  50 NE7       30.14S HX  82
6HR MIN TEMP:  72; 6HR MAX TEMP:  81;

AURORA         MOSUNNY   79  59  50 NW3       30.15S HX  80
6HR MIN TEMP:  65; 6HR MAX TEMP:  80;

LANSING*       SUNNY     77  61  57 NE6       30.14S
JOLIET*        PTSUNNY   79  61  54 N5        30.14F HX  80
WAUKEGAN       PTSUNNY   72  63  73 NE9       30.16S
6HR MIN TEMP:  63; 6HR MAX TEMP:  74;

DUPAGE AIRPORT MOSUNNY   82  60  47 N5        30.14F HX  82
6HR MIN TEMP:  65; 6HR MAX TEMP:  82;

KANKAKEE*      PTSUNNY   78  66  66 CALM      30.14S HX  80
WHEELING       MOSUNNY   79  65  62 NE8       30.16S HX  81
6HR MIN TEMP:  67; 6HR MAX TEMP:  79;

MORRIS*        SUNNY     79  67  66 CALM      30.14S HX  81
ROMEOVILLE*    MOSUNNY   79  63  56 CALM      30.14S HX  81
NORTHERLY ISL    N/A     73  65  75 NE7         N/A
$$

LMZ740>746-271900-
SOUTHERN LAKE MICHIGAN

STATION/POSITION SKY/WX   TEMP    WIND        PRES    VSBY  WAVE
                          AIR SEA DIR/SP/G                  HT/PER
                          (F)     (DEG/KT/KT) (MB)    (MI)  (FT/S)
SOUTHERN BUOY              67 70   50/  6/  8 1021.6S         0
WAUKEGAN HARBOR            69      40/  9/ 10   N/A
HARRISON CRIB              70      30/  5/  6   N/A
BURNHAM HARBOR             73      30/  6/  7   N/A
CALUMET HARBOR             72      20/  6/  8 1019.7R
MICHIGAN CITY              70     350/ 12/ 14   N/A
MICHIGAN CITY 6N           71 74  360/ 10/ 12   N/A           1/ 2
ST. JOSEPH                 70 74  350/ 12/ 16   N/A           1/ 2
$$

ILZ025>027-034>036-040-047-049-050-058-095>099-271900-
WEST-CENTRAL ILLINOIS

CITY           SKY/WX    TMP DP  RH WIND       PRES   REMARKS
QUINCY         FAIR      81  74  79 N8        30.14S THUNDER HX  86
GALESBURG*     FAIR      81  69  67 NW3       30.16S HX  83
MACOMB*        FAIR      78  70  77 N5        30.17F HX  80
JACKSONVILLE*  FAIR      85  75  72 NE5       30.13S HX  92
PITTSFIELD*    PTSUNNY   83  73  69 CALM      30.14S HX  89
$$

ILZ028>032-037-038-041>044-048-051>054-059>061-271900-
CENTRAL ILLINOIS

CITY           SKY/WX    TMP DP  RH WIND       PRES   REMARKS
PONTIAC        FAIR      81  70  69 CALM      30.14S HX  84
DECATUR        CLOUDY    83  75  77 NW3       30.12S HX  90
PEORIA         FAIR      85  68  56 NE3       30.13S HX  88
6HR MIN TEMP:  73; 6HR MAX TEMP:  86;

LACON*         FAIR      79  68  68 CALM      30.13S HX  81
LINCOLN*       FAIR      86  72  64 NE3       30.09S HX  92
SPRINGFIELD    CLOUDY    85  74  69 E6        30.12S HX  92
6HR MIN TEMP:  74; 6HR MAX TEMP:  85;

TAYLORVILLE    FAIR      84  73  70 CALM      30.10F HX  91
$$

ILZ033-039-045-046-055>057-062-063-271900-
EAST-CENTRAL ILLINOIS

CITY           SKY/WX    TMP DP  RH WIND       PRES   REMARKS
CHAMPAIGN      CLOUDY    86  74  67 E6        30.12S HX  94
DANVILLE*      CLOUDY    82  73  74 NE3       30.09F HAZE    HX  87
RANTOUL*       PTSUNNY   84  70  62 E3        30.13S HX  89
MATTOON        FAIR      87  72  60 NW5       30.10F HX  93
PARIS*         PTSUNNY   85  72  63 CALM      30.11F HX  91
$$

ILZ079-100>102-271900-
SOUTHWEST ILLINOIS

CITY           SKY/WX    TMP DP  RH WIND       PRES   REMARKS
ALTON          PTSUNNY   88  72  58 N7        30.10F HX  94
BELLEVILLE     FAIR      91  76  60 VRB2      30.08F HX 103
CAHOKIA*       SUNNY     91  73  55 CALM      30.08F HX 100
SPARTA*        FAIR      89  74  62 CALM      30.10S HX  98
$$

ILZ064>066-069>071-074>076-080>082-084>086-088>090-092>094-271900-
SOUTH-CENTRAL ILLINOIS

CITY           SKY/WX    TMP DP  RH WIND       PRES   REMARKS
CARBONDALE     FAIR      90  73  57 CALM      30.08F HX  98
6HR MIN TEMP:  71; 6HR MAX TEMP:  91;

CAIRO*         FAIR      92  73  53 E3        30.08F HX 101
EFFINGHAM*     FAIR      87  68  52 CALM      30.10S HX  91
MARION         MOSUNNY   91  72  52 CALM      30.09F HX  98
MT. VERNON     FAIR      90  75  62 N3        30.09F HX 100
SALEM*         FAIR      91  77  63 CALM      30.10S HX 103
METROPOLIS*    FAIR      91  74  57 NE5       30.08F HX 101
$$

ILZ067-068-072-073-078-083-087-091-271900-
SOUTHEAST ILLINOIS

CITY           SKY/WX    TMP DP  RH WIND       PRES   REMARKS
LAWRENCEVILLE  MOSUNNY   89  75  63 N5        30.08F HX  99
FLORA*         MOSUNNY   88  73  62 CALM      30.09F HX  95
FAIRFIELD*     FAIR      91  79  66 CALM      30.08F HX 107
HARRISBURG*    FAIR      91  71  52 CALM      30.09F HX  97
ROBINSON*      SUNNY     90  72  56 CALM      30.09F HX  97
CARMI*         FAIR      91  75  59 CALM      30.08F HX 102
$$

ABBREVIATIONS USED IN REMARKS
   TC - TEMPERATURE IN CELSIUS
  WCI - WIND CHILL INDEX
   HX - HEAT INDEX
  VSB - VISIBILITY
$$




USA.gov is the U.S. government's official web portal to all federal, state and local government web resources and services.